Bohemia, Louisiana
Current Conditions -  °F | °C
As of 1:55 AM on Sunday 26 Oct 2014 (Local Time) from KNBG Reporting Station
Clear Clear  
Wind Chill: 57°   Ceiling: Unl
Heat Index: 57°   Visibility: NA
Dew Point: 53°   Wind: 0mph
Humidity: 87%   Direction: NA
Pressure: 30.05"   Gusts: NA
Location:  29.5781°N, 89.7956°W
Report Text: KNBG 260655Z AUTO 00000KT CLR 14/12 A3005 RMK AO2 SLP176 T01390117 TSNO $
Loading
Personal Weather Stations






























Interactive Weather Map
Tropical Storm Tracking
New forecast layout! Learn more

10-Day Weather Forecast

Advertisements
Track Severe Weather on mobile